Regional Weather Roundup
Issued by NWS

Home | Current Version | Previous Version | Text Only | Print | Product List | Glossary On
Versions: 1 2 3 4 5 6 7 8 9 10 11 12 13 14 15 16 17 18 19 20 21 22 23 24 25 26 27 28
000
ASPQ40 PGUM 230612
RWRPQ
WEATHER ROUNDUP FOR THE MARIANAS AND MICRONESIA
NATIONAL WEATHER SERVICE TIYAN GU
400 PM CHST THU NOV 23 2017

GUZ001>004-230700-
MARIANA ISLANDS-

CITY           SKY/WX    TMP DP  RH WIND       PRES   REMARKS
GUAM AIRPORT   PTSUNNY   84  73  70 E14       29.77S HX  91
ANDERSEN AFB   MOSUNNY   82  73  74 E16G22    29.78R
ROTA AIRPORT   MOSUNNY   84  70  61 E15       29.78S
TINIAN AP      MOSUNNY   82  73  74 E15       29.77R
SAIPAN AP      MOSUNNY   86  73  66 E16       29.78R HX  93

$$

PMZ161-230700-
REPUBLIC OF PALAU-

CITY           SKY/WX    TMP DP  RH WIND       PRES   REMARKS
KOROR AP       PTSUNNY   86  75  70 NE10G17   29.69F HX  95
KOROR WSO      PTSUNNY   90  77  66 E7        29.70S HX 102

$$

PMZ171>174-230700-
FEDERATED STATES OF MICRONESIA-

CITY           SKY/WX    TMP DP  RH WIND       PRES   REMARKS
YAP AIRPORT    PTSUNNY   86  79  79 NE12      29.69F HX  99
CHUUK AP       CLOUDY    82  79  89 NE7       29.68R HX  93
POHNPEI AP     NOT AVBL
POHNPEI WSO    CLOUDY    81  77  89 NE12      29.73R
KOSRAE AP      NOT AVBL

$$

PMZ181-230700-
REPUBLIC OF THE MARSHALL ISLANDS-

CITY           SKY/WX    TMP DP  RH WIND       PRES   REMARKS
KWAJALEIN AP   PTCLDY    84  75  74 NE8       29.72R HX  92
MAJURO AP      NOT AVBL
MAJURO WSO     MOCLDY    84  77  79 E7        29.70R HX  94

$$





USA.gov is the U.S. government's official web portal to all federal, state and local government web resources and services.